Location: Chiroubles
(46.1812°N, 4.6660°E)
Time: 16:22:02
(UTC+00:00)

Transit 4A - Pass Details

Date: 05 December 2020
Orbit: 864 x 980 km, 66.8° (Epoch: 26 January)

Event Time Altitude Azimuth Distance (km) Brightness Sun altitude
Rises 08:47:49 0° 272° (W) 3,667 10.6 11.9°
Reaches altitude 10° 08:51:18 10° 291° (WNW) 2,731 9.9 12.3°
Maximum altitude 08:55:34 18° 333° (NNW) 2,203 9.4 12.8°
Drops below altitude 10° 08:59:50 10° 15° (NNE) 2,740 10.0 13.2°
Sets 09:03:21 0° 34° (NNE) 3,682 10.8 13.6°
